Weather History for Mosby, MO

Change the Weather History Date:

Tuesday, December 3, 2013

  Actual Average (KMKC) Record (KMKC)
Temperature  
Mean Temperature 44 °F -  
Max Temperature 59 °F 46 °F 73 °F (2012)
Min Temperature 30 °F 30 °F 17 °F (2006)
Degree Days  
Heating Degree Days 20    
Moisture  
Dew Point 39 °F    
Average Humidity 90    
Maximum Humidity 100    
Minimum Humidity 59    
Precipitation  
Precipitation 0.00 in - - ()
Sea Level Pressure  
Sea Level Pressure 29.58 in    
Wind  
Wind Speed 2 mph (SSE)    
Max Wind Speed 9 mph    
Max Gust Speed -    
Visibility 5 miles    
Events Fog    
Averages and records for this station are not official NWS values.
T = Trace of Precipitation, MM = Missing Value Source: NWS Daily Summary

Daily Weather History Graph

Daily Weather History Graph

Search for Another Location

Airport:

Trip Planner

Search our weather history database for the weather conditions in past years. The results will help you decide how hot, cold, wet, or windy it might be!

Date:

Astronomy

Dec. 03, 2013 Rise Set
Actual Time 7:20 AM CST 4:54 PM CST
Civil Twilight 6:50 AM CST 5:23 PM CST
Nautical Twilight 6:17 AM CST 5:57 PM CST
Astronomical Twilight 5:44 AM CST 6:29 PM CST
Moon 7:50 AM CST (12/3) 5:58 PM CST (12/3)
Length of Visible Light 10h 33m
Length of Day
9h 33m
New Moon, 1% of the Moon is Illuminated
Dec 3
New Moon
Dec 9
First Quarter
Dec 17
Full
Dec 25
Last Quarter
Jan 1
New

Hourly Weather History & Observations

Time (CST) Temp. Windchill Dew Point Humidity Pressure Visibility Wind Dir Wind Speed Gust Speed Precip Events Conditions
12:15 AM 32.0 °F - 32.0 °F 100% 29.62 in 0.2 mi Calm Calm - N/A Fog Light Freezing Fog
12:35 AM 32.0 °F - 32.0 °F 100% 29.61 in 0.2 mi Calm Calm - N/A Fog Light Freezing Fog
12:55 AM 30.2 °F - 30.2 °F 100% 29.60 in 0.2 mi Calm Calm - N/A Fog Light Freezing Fog
1:15 AM 30.2 °F - 30.2 °F 100% 29.59 in 0.2 mi Calm Calm - N/A Fog Light Freezing Fog
1:35 AM 30.2 °F - 30.2 °F 100% 29.59 in 0.2 mi Calm Calm - N/A Fog Light Freezing Fog
1:55 AM 30.2 °F - 30.2 °F 100% 29.59 in 0.2 mi Calm Calm - N/A Fog Light Freezing Fog
2:15 AM 30.2 °F - 30.2 °F 100% 29.59 in 0.2 mi Calm Calm - N/A Fog Light Freezing Fog
2:35 AM 30.2 °F - 30.2 °F 100% 29.59 in 0.2 mi Calm Calm - N/A Fog Light Freezing Fog
2:55 AM 32.0 °F - 32.0 °F 100% 29.60 in 0.2 mi Calm Calm - N/A Fog Light Freezing Fog
3:15 AM 30.2 °F - 30.2 °F 100% 29.60 in 0.2 mi Calm Calm - N/A Fog Light Freezing Fog
3:35 AM 30.2 °F - 30.2 °F 100% 29.60 in 0.2 mi Calm Calm - N/A Fog Light Freezing Fog
3:55 AM 32.0 °F - 32.0 °F 100% 29.59 in 0.2 mi Calm Calm - N/A Fog Light Freezing Fog
4:15 AM 32.0 °F 28.7 °F 32.0 °F 100% 29.58 in 0.2 mi ESE 3.5 mph - N/A Fog Fog
4:35 AM 32.0 °F - 32.0 °F 100% 29.57 in 0.2 mi Calm Calm - N/A Fog Fog
4:55 AM 32.0 °F - 32.0 °F 100% 29.57 in 0.2 mi Calm Calm - N/A Fog Fog
5:15 AM 32.0 °F - 32.0 °F 100% 29.57 in 0.2 mi Calm Calm - N/A Fog Fog
5:35 AM 33.8 °F 30.8 °F 33.8 °F 100% 29.57 in 0.2 mi SE 3.5 mph - N/A Fog Fog
5:55 AM 33.8 °F - 33.8 °F 100% 29.57 in 0.2 mi Calm Calm - N/A Fog Fog
6:15 AM 33.8 °F 29.6 °F 33.8 °F 100% 29.57 in 0.2 mi South 4.6 mph - N/A Fog Fog
6:35 AM 35.6 °F - 35.6 °F 100% 29.57 in 0.2 mi Calm Calm - N/A Fog Fog
6:55 AM 35.6 °F - 35.6 °F 100% 29.58 in 0.2 mi Calm Calm - N/A Fog Fog
7:15 AM 37.4 °F - 37.4 °F 100% 29.58 in 0.2 mi Calm Calm - N/A Fog Fog
7:35 AM 37.4 °F 34.9 °F 37.4 °F 100% 29.59 in 0.2 mi SE 3.5 mph - N/A Fog Fog
7:55 AM 37.4 °F 33.8 °F 37.4 °F 100% 29.58 in 1.0 mi SE 4.6 mph - N/A   Overcast
8:15 AM 39.2 °F - 39.2 °F 100% 29.59 in 1.2 mi Calm Calm - N/A   Overcast
8:35 AM 39.2 °F 37.0 °F 39.2 °F 100% 29.59 in 1.0 mi ESE 3.5 mph - N/A   Overcast
8:55 AM 39.2 °F - 39.2 °F 100% 29.59 in 1.5 mi Calm Calm - N/A   Overcast
9:15 AM 41.0 °F 39.0 °F 41.0 °F 100% 29.58 in 1.5 mi SE 3.5 mph - N/A   Mostly Cloudy
9:35 AM 41.0 °F 39.0 °F 41.0 °F 100% 29.58 in 2.5 mi SSE 3.5 mph - N/A   Scattered Clouds
9:55 AM 42.8 °F 40.1 °F 42.8 °F 100% 29.60 in 3.0 mi South 4.6 mph - N/A   Mostly Cloudy
10:15 AM 42.8 °F 40.1 °F 42.8 °F 100% 29.60 in 3.0 mi SSE 4.6 mph - N/A   Mostly Cloudy
10:35 AM 42.8 °F 41.1 °F 42.8 °F 100% 29.60 in 4.0 mi SSE 3.5 mph - N/A   Mostly Cloudy
10:55 AM 44.6 °F 42.2 °F 44.6 °F 100% 29.60 in 5.0 mi South 4.6 mph - N/A   Overcast
11:15 AM 44.6 °F 42.2 °F 44.6 °F 100% 29.60 in 5.0 mi South 4.6 mph - N/A   Overcast
11:35 AM 46.4 °F 42.9 °F 46.4 °F 100% 29.59 in 5.0 mi SSE 6.9 mph - N/A   Mist
11:55 AM 48.2 °F - 46.4 °F 93% 29.58 in 7.0 mi SSE 5.8 mph - N/A   Clear
12:15 PM 50.0 °F - 46.4 °F 87% 29.57 in 7.0 mi South 9.2 mph - N/A   Clear
12:35 PM 51.8 °F - 46.4 °F 82% 29.57 in 10.0 mi SSE 6.9 mph - N/A   Clear
12:55 PM 53.6 °F - 44.6 °F 72% 29.55 in 10.0 mi South 6.9 mph - N/A   Clear
1:15 PM 53.6 °F - 44.6 °F 72% 29.54 in 10.0 mi South 4.6 mph - N/A   Clear
1:35 PM 55.4 °F - 44.6 °F 67% 29.53 in 10.0 mi SSE 6.9 mph - N/A   Clear
1:55 PM 57.2 °F - 44.6 °F 63% 29.53 in 10.0 mi South 5.8 mph - N/A   Unknown
2:15 PM 59.0 °F - 44.6 °F 59% 29.52 in 10.0 mi SE 6.9 mph - N/A   Clear
2:35 PM 59.0 °F - 44.6 °F 59% 29.52 in 10.0 mi SSE 5.8 mph - N/A   Clear
2:55 PM 59.0 °F - 44.6 °F 59% 29.53 in 10.0 mi South 8.1 mph - N/A   Clear
3:15 PM 59.0 °F - 44.6 °F 59% 29.53 in 10.0 mi South 6.9 mph - N/A   Clear
3:35 PM 59.0 °F - 44.6 °F 59% 29.53 in 10.0 mi South 6.9 mph - N/A   Clear
3:55 PM 59.0 °F - 44.6 °F 59% 29.54 in 10.0 mi South 4.6 mph - N/A   Clear
4:15 PM 59.0 °F - 44.6 °F 59% 29.55 in 10.0 mi South 4.6 mph - N/A   Clear
4:35 PM 59.0 °F - 44.6 °F 59% 29.55 in 10.0 mi SSE 4.6 mph - N/A   Clear
4:55 PM 57.2 °F - 44.6 °F 63% 29.55 in 10.0 mi SSE 3.5 mph - N/A   Clear
5:15 PM 55.4 °F - 44.6 °F 67% 29.55 in 10.0 mi SE 3.5 mph - N/A   Clear
5:35 PM 55.4 °F - 44.6 °F 67% 29.55 in 10.0 mi SE 3.5 mph - N/A   Clear
5:55 PM 51.8 °F - 42.8 °F 71% 29.56 in 10.0 mi Calm Calm - N/A   Clear
6:15 PM 50.0 °F - 42.8 °F 76% 29.57 in 10.0 mi Calm Calm - N/A   Clear
6:35 PM 48.2 °F - 42.8 °F 82% 29.57 in 10.0 mi Calm Calm - N/A   Clear
6:55 PM 46.4 °F 45.2 °F 41.0 °F 81% 29.57 in 10.0 mi ESE 3.5 mph - N/A   Clear
7:15 PM 44.6 °F - 41.0 °F 87% 29.58 in 7.0 mi Calm Calm - N/A   Clear
7:35 PM 44.6 °F - 42.8 °F 93% 29.57 in 7.0 mi Calm Calm - N/A   Clear
7:55 PM 41.0 °F - 41.0 °F 100% 29.58 in 7.0 mi Calm Calm - N/A   Unknown
8:15 PM 41.0 °F - 41.0 °F 100% 29.59 in 7.0 mi Calm Calm - N/A   Clear
8:35 PM 41.0 °F - 41.0 °F 100% 29.59 in 7.0 mi Calm Calm - N/A   Clear
8:55 PM 39.2 °F - 37.4 °F 93% 29.59 in 7.0 mi Calm Calm - N/A   Unknown
9:15 PM 37.4 °F - 37.4 °F 100% 29.59 in 7.0 mi Calm Calm - N/A   Clear
9:35 PM 37.4 °F - 37.4 °F 100% 29.59 in 5.0 mi Calm Calm - N/A   Clear
9:55 PM 37.4 °F - 37.4 °F 100% 29.60 in 5.0 mi Calm Calm - N/A   Clear
10:15 PM 37.4 °F - 37.4 °F 100% 29.60 in 7.0 mi Calm Calm - N/A   Clear
10:35 PM 35.6 °F - 35.6 °F 100% 29.60 in 7.0 mi Calm Calm - N/A   Clear
10:55 PM 35.6 °F - 35.6 °F 100% 29.60 in 7.0 mi Calm Calm - N/A   Clear
11:15 PM 37.4 °F - 37.4 °F 100% 29.59 in 4.0 mi Calm Calm - N/A   Clear
11:35 PM 35.6 °F - 35.6 °F 100% 29.60 in 5.0 mi Calm Calm - N/A   Clear
11:55 PM 35.6 °F - 35.6 °F 100% 29.60 in 5.0 mi Calm Calm - N/A   Clear